Lexington Weather

Lexington, Massachusetts, USA

69°F
8/17/2022 7:29pm 
  • Lexington Conditions: Overcast
  • Temperature: 69.4°F / 20.8°CColder 0.6°F than last hour.
  • Dew Point: 57.6°FDecreased 1.8°Fsince last hour.
  • Relative Humidity: 66%Decreased 3.0% since last hour.
  • Wind: Calm, 10-min avg: Calm, gust: None
  • Barometer: 29.84 in Steady
  • Visibility: 10 miles
  • Rain Today: 0.00 in
  •   

Regional Weather Roundup
for Boston, MA

        
000
ASUS41 KBOX 110010
RWRBOX

REGIONAL WEATHER ROUNDUP
NATIONAL WEATHER SERVICE BOSTON/NORTON MA
800 PM EDT WED AUG 10 2022

NOTE:  "FAIR" INDICATES FEW OR NO CLOUDS BELOW 12,000 FEET WITH NO 
SIGNIFICANT WEATHER AND/OR OBSTRUCTIONS TO VISIBILITY.

MAZALL-110100-
EASTERN MASSACHUSETTS
  
CITY           SKY/WX    TMP DP  RH WIND       PRES   REMARKS
BOSTON         MOCLDY    66  63  90 E8        30.01S                  
6HR MIN TEMP:  66; 6HR MAX TEMP:  72;                                

BEVERLY        MOCLDY    66  61  84 SE7       30.00S                  
LAWRENCE       CLOUDY    70  60  70 VRB5      30.02S                  
BEDFORD        MOCLDY    70  61  73 E7        29.99S                  
BLUE HILL      NOT AVBL                                               
NORWOOD        MOCLDY    70  62  76 NE6       29.99R                  
MARSHFIELD     CLOUDY    68  64  88 CALM      30.01R                  
PLYMOUTH       CLOUDY    68  64  87 E6        30.01R                  
TAUNTON        MOCLDY    70  63  78 E5        29.99R                  
NEW BEDFORD    CLOUDY    72  65  78 E6        29.99R                  
$$

MAZALL-110100-
CAPE COD AND THE ISLANDS
  
CITY           SKY/WX    TMP DP  RH WIND       PRES   REMARKS
FALMOUTH       MOCLDY    68  66  94 NE6       30.01R                  
HYANNIS        CLOUDY    72  65  78 E3        29.99R                  
CHATHAM        CLOUDY    71  67  87 E6        30.00S                  
NANTUCKET      CLOUDY    72  69  90 NE7       30.00S                  
MARTHAS VNYRD  CLOUDY    73  69  87 E8        29.99S                  
$$
 
MAZALL-110100-
CENTRAL AND WESTERN MASSACHUSETTS
  
CITY           SKY/WX    TMP DP  RH WIND       PRES   REMARKS
WORCESTER      CLOUDY    74  64  71 SE6       30.02R                  
6HR MIN TEMP:  74; 6HR MAX TEMP:  80;                                

FITCHBURG      NOT AVBL                                               
ORANGE         MOCLDY    73  63  70 CALM      30.01S                  
SPRINGFIELD    MOCLDY    75  55  49 N3        29.97R                  
WESTFIELD      CLOUDY    77  57  50 N6        29.99R                  
NORTH ADAMS    CLEAR     69  63  81 CALM      30.01S                  
PITTSFIELD     CLOUDY    71  59  65 CALM      30.02S                  
$$
 
RIZALL-110100-
RHODE ISLAND
  
CITY           SKY/WX    TMP DP  RH WIND       PRES   REMARKS
PROVIDENCE     MOCLDY    74  67  78 S10       30.00R                  
6HR MIN TEMP:  74; 6HR MAX TEMP:  82;                                

NEWPORT        CLOUDY    71  67  87 SE7       30.00R                  
BLOCK ISLAND   CLOUDY    70  67  90 SE7       30.01R                  
SMITHFIELD     CLOUDY    72  67  84 SE7       30.01R                  
WESTERLY       MOCLDY    72  68  87 SE6       30.00R                  
$$
 
CTZALL-110100-
CONNECTICUT
  
CITY           SKY/WX    TMP DP  RH WIND       PRES   REMARKS
BRADLEY INTL   PTCLDY    76  58  53 N6        29.98R                  
6HR MIN TEMP:  76; 6HR MAX TEMP:  87;                                

HARTFORD       MOCLDY    81  58  45 N10       29.97R                  
BRIDGEPORT     PTCLDY    77  70  79 S8        29.97R                  
DANBURY        CLOUDY    81  64  56 S6        29.99R                  
GROTON         MOCLDY    73  68  84 SE7       29.99R                  
NEW HAVEN      CLEAR     79  72  79 S9        29.98R                  
CHESTER        FAIR      75  70  83 SE6       30.00R                  
MERIDEN        CLEAR     79  62  56 CALM      29.97R                  
WILLIMANTIC    MOCLDY    76  67  73 S7        29.99R                  
OXFORD         MOCLDY    76  65  68 SE3       30.01R                  
$$

MEZ002-015-021-024-NHZ003-005-008-011-012-014-VTZ005-008-110100-
NORTHERN NEW ENGLAND
  
CITY           SKY/WX    TMP DP  RH WIND       PRES   REMARKS
PORTLAND ME    CLOUDY    65  60  84 S6        30.01S                  
6HR MIN TEMP:  65; 6HR MAX TEMP:  71;                                

BANGOR ME      MOCLDY    70  62  76 S7        29.99F                  
CONCORD NH     CLOUDY    70  63  78 S8        30.00R                  
MANCHESTER NH  MOCLDY    72  61  68 SE7       29.99R                  
NASHUA NH      CLOUDY    73  66  78 SE8       30.00S                  
PORTSMOUTH NH  CLOUDY    66  59  78 SE5       30.00S                  
JAFFREY NH     CLOUDY    73  62  68 CALM      30.02F                  
KEENE NH       MOCLDY    71  66  84 CALM        N/A                   
BURLINGTON VT  PTCLDY    72  60  66 S5        29.98S                  
MT. WASHINGTON MOCLDY    49  47  95 SE6         N/A                   
$$

NYZ052-076-110100-
EASTERN NEW YORK
  
CITY           SKY/WX    TMP DP  RH WIND       PRES   REMARKS
ALBANY         MOCLDY    75  60  59 CALM      29.99F                  
6HR MIN TEMP:  74; 6HR MAX TEMP:  79;                                

NEW YORK CITY  PTCLDY    79  67  66 S12       29.98R                  
6HR MIN TEMP:  79; 6HR MAX TEMP:  86;                                

$$
 
ANZALL-110100-
MARINE OBSERVATIONS
  
STATION/POSITION TIME  TEMP    WIND        PRES    VSBY  WAVE
                       AIR SEA DIR/SP/G                  HT/PER
                 (UTC) (F)     (DEG/KT/KT) (MB)    (MI)  (FT/S)
BOSTON BUOY      NOT AVBL
BUZZARDS BAY     NOT AVBL
NANTUCKET SOUND  NOT AVBL
MASS BAY-STELLWA NOT AVBL
ISLE OF SHOALS   NOT AVBL
S OF BLOCK IS    NOT AVBL
$$

......................KEY.........................
  SKY/WX - SKY CONDITION/PRESENT WEATHER
  TMP    - TEMPERATURE IN FAHRENHEIT
  DWPT   - DEWPOINT IN FAHRENHEIT
  RH     - RELATIVE HUMIDITY IN PERCENT
  WIND   - DIRECTION AND SPEED IN MPH
  PRES   - MEAN SEA LEVEL PRESSURE IN INCHES OF HG
  WCI    - WIND CHILL INDEX
  VSB    - VISIBILITY IN MILES
  HX     - HEAT INDEX
  TC     - TEMPERATURE IN CELSIUS
  VRB    - VARIABLE WIND DIRECTION
  N/A    - NOT AVAILABLE
  
      

Other recent Regional Weather Roundups

Wed Aug 17, 7:10pm

Wed Aug 17, 6:10pm

Wed Aug 17, 5:10pm

Wed Aug 17, 4:10pm

Wed Aug 17, 3:10pm

Wed Aug 17, 2:10pm

Wed Aug 17, 1:10pm

Wed Aug 17, 12:10pm

Wed Aug 17, 11:10am

Wed Aug 17, 10:10am

Wed Aug 17, 9:10am

Wed Aug 17, 8:10am

Wed Aug 17, 7:10am

Wed Aug 17, 6:10am

Wed Aug 17, 5:10am

Wed Aug 17, 4:10am

Wed Aug 17, 3:10am

Wed Aug 17, 2:10am

Wed Aug 17, 1:10am

Wed Aug 17, 12:10am

Tue Aug 16, 11:10pm

Tue Aug 16, 10:10pm

Tue Aug 16, 9:10pm

Tue Aug 16, 8:10pm

Tue Aug 16, 7:10pm

Tue Aug 16, 6:10pm

Tue Aug 16, 5:10pm

Tue Aug 16, 4:10pm

Tue Aug 16, 3:10pm

Tue Aug 16, 2:10pm

Tue Aug 16, 1:10pm

Tue Aug 16, 12:10pm

Tue Aug 16, 11:10am

Tue Aug 16, 10:10am

Tue Aug 16, 9:10am

Tue Aug 16, 8:10am

Tue Aug 16, 7:10am

Tue Aug 16, 6:10am

Tue Aug 16, 5:10am

Tue Aug 16, 4:10am

Tue Aug 16, 3:10am

Tue Aug 16, 2:10am

Tue Aug 16, 1:10am

Tue Aug 16, 12:10am

Mon Aug 15, 11:10pm

Mon Aug 15, 10:10pm

Mon Aug 15, 9:10pm

Mon Aug 15, 8:10pm

Mon Aug 15, 7:10pm

Mon Aug 15, 6:10pm

Mon Aug 15, 5:10pm

Mon Aug 15, 4:10pm

Mon Aug 15, 3:10pm

Mon Aug 15, 2:10pm

Mon Aug 15, 1:10pm

Mon Aug 15, 12:10pm

Mon Aug 15, 11:10am

Mon Aug 15, 10:10am

Mon Aug 15, 9:10am

Mon Aug 15, 8:10am

Mon Aug 15, 7:10am

Mon Aug 15, 6:10am

Mon Aug 15, 5:10am

Mon Aug 15, 4:10am

Mon Aug 15, 3:10am

Mon Aug 15, 2:10am

Mon Aug 15, 1:10am

Mon Aug 15, 12:10am

Sun Aug 14, 11:10pm

Sun Aug 14, 10:10pm

Sun Aug 14, 9:10pm

Sun Aug 14, 8:10pm

Sun Aug 14, 7:10pm

Sun Aug 14, 6:10pm

Sun Aug 14, 5:10pm

Sun Aug 14, 4:10pm

Sun Aug 14, 3:10pm

Sun Aug 14, 2:10pm

Sun Aug 14, 1:10pm

Sun Aug 14, 12:10pm

Sun Aug 14, 11:10am

Sun Aug 14, 10:10am

Sun Aug 14, 9:10am

Sun Aug 14, 8:10am

Sun Aug 14, 7:10am

Sun Aug 14, 6:10am

Sun Aug 14, 5:10am

Sun Aug 14, 4:10am

Sun Aug 14, 3:10am

Sun Aug 14, 2:10am

Sun Aug 14, 1:10am

Sun Aug 14, 12:10am

Sat Aug 13, 11:10pm

Sat Aug 13, 10:10pm

Sat Aug 13, 9:10pm

Sat Aug 13, 8:10pm

Sat Aug 13, 7:10pm

Sat Aug 13, 6:10pm

Sat Aug 13, 5:10pm

Sat Aug 13, 4:10pm

Sat Aug 13, 3:10pm

Sat Aug 13, 2:10pm

Sat Aug 13, 1:10pm

Sat Aug 13, 12:10pm

Sat Aug 13, 11:10am

Sat Aug 13, 10:10am

Sat Aug 13, 9:10am

Sat Aug 13, 8:10am

Sat Aug 13, 7:10am

Sat Aug 13, 6:10am

Sat Aug 13, 5:10am

Sat Aug 13, 4:10am

Sat Aug 13, 3:10am

Sat Aug 13, 2:10am

Sat Aug 13, 1:10am

Sat Aug 13, 12:10am

Fri Aug 12, 11:10pm

Fri Aug 12, 10:10pm

Fri Aug 12, 9:10pm

Fri Aug 12, 8:10pm

Fri Aug 12, 7:10pm

Fri Aug 12, 6:10pm

Fri Aug 12, 5:10pm

Fri Aug 12, 4:10pm

Fri Aug 12, 3:10pm

Fri Aug 12, 2:10pm

Fri Aug 12, 1:10pm

Fri Aug 12, 12:10pm

Fri Aug 12, 11:10am

Fri Aug 12, 10:10am

Fri Aug 12, 9:10am

Fri Aug 12, 8:10am

Fri Aug 12, 7:10am

Fri Aug 12, 6:10am

Fri Aug 12, 5:10am

Fri Aug 12, 4:10am

Fri Aug 12, 3:10am

Fri Aug 12, 2:10am

Fri Aug 12, 1:10am

Fri Aug 12, 12:10am

Thu Aug 11, 11:10pm

Thu Aug 11, 10:10pm

Thu Aug 11, 9:10pm

Thu Aug 11, 8:10pm

Thu Aug 11, 7:10pm

Thu Aug 11, 6:10pm

Thu Aug 11, 5:10pm

Thu Aug 11, 4:10pm

Thu Aug 11, 3:10pm

Thu Aug 11, 2:10pm

Thu Aug 11, 1:10pm

Thu Aug 11, 12:10pm

Thu Aug 11, 11:10am

Thu Aug 11, 10:10am

Thu Aug 11, 9:10am

Thu Aug 11, 8:10am

Thu Aug 11, 7:10am

Thu Aug 11, 6:10am

Thu Aug 11, 5:10am

Thu Aug 11, 4:10am

Thu Aug 11, 3:10am

Thu Aug 11, 2:10am

Thu Aug 11, 1:10am

Thu Aug 11, 12:10am

Wed Aug 10, 11:10pm

Wed Aug 10, 10:10pm

Wed Aug 10, 9:10pm

Meta data:

ID: e372e94b-70d1-4353-a5fb-9fd436d9f15a
Link: https://api.weather.gov/products/e372e94b-70d1-4353-a5fb-9fd436d9f15a